Terug naar catalogus

STARLINK-5684

ActiefCommunicatieVLEO
NORAD 55453·PAYLOAD·🇺🇸 United States

Gelanceerd Feb 2, 2023 vanaf Cape Canaveral Space Force Station

Loading…

Volgende Passages (komende 24 uur)

TLE

VersSource: CelesTrak SupGP

Epoch: Sep 15, 2026, 03:03 UTC

1 55453C 23015E   26258.12756944  .00027956  00000+0  10124-2 0  2580
2 55453  43.0008 338.7083 0001675 271.0565 180.1802 15.27568207    10

Volg STARLINK-5684 in realtime met AllMySat

Download on the App Store